Hourly Weather Rudavka

Today, 16 April, Friday

Time Temperature Precipitation Wind Pressure Humidity
00:00 +3°C° 0.1 mm 4 mps 745 mmHg 95%
01:00 +3°C° 0.1 mm 4 mps 745 mmHg 95%
02:00 +3°C° 0 mm 4 mps 745 mmHg 96%
03:00 +4°C° 0.6 mm 4 mps 744 mmHg 96%
04:00 +4°C° 0.6 mm 4 mps 744 mmHg 96%
05:00 +4°C° 0.6 mm 4 mps 744 mmHg 96%
06:00 +4°C° 0.2 mm 4 mps 744 mmHg 96%
07:00 +4°C° 0.2 mm 4 mps 744 mmHg 96%
08:00 +5°C° 0.2 mm 4 mps 743 mmHg 96%
09:00 +6°C° 0 mm 4 mps 744 mmHg 94%
10:00 +7°C° 0 mm 5 mps 744 mmHg 92%
11:00 +7°C° 0 mm 5 mps 744 mmHg 90%
12:00 +8°C° 0.2 mm 5 mps 744 mmHg 87%
13:00 +9°C° 0.2 mm 5 mps 744 mmHg 83%
14:00 +10°C° 0.2 mm 5 mps 744 mmHg 80%
15:00 +10°C° 0.5 mm 4 mps 744 mmHg 81%
16:00 +10°C° 0.5 mm 4 mps 744 mmHg 83%
17:00 +10°C° 0.5 mm 4 mps 744 mmHg 84%
18:00 +10°C° 0.7 mm 4 mps 744 mmHg 87%
19:00 +8°C° 0.7 mm 4 mps 744 mmHg 89%
20:00 +8°C° 0.7 mm 4 mps 744 mmHg 92%
21:00 +7°C° 0.2 mm 4 mps 745 mmHg 93%
22:00 +7°C° 0.2 mm 3 mps 745 mmHg 94%
23:00 +7°C° 0.2 mm 3 mps 745 mmHg 95%

Tomorrow, 17 April, Saturday

Time Temperature Precipitation Wind Pressure Humidity
00:00 +5°C° 0 mm 3 mps 745 mmHg 95%
01:00 +5°C° 0 mm 3 mps 745 mmHg 96%
02:00 +5°C° 0 mm 2 mps 746 mmHg 96%
03:00 +6°C° 0.1 mm 2 mps 746 mmHg 96%
04:00 +6°C° 0.1 mm 2 mps 746 mmHg 96%
05:00 +6°C° 0.1 mm 2 mps 746 mmHg 95%
06:00 +7°C° 0 mm 2 mps 747 mmHg 93%
07:00 +7°C° 0 mm 2 mps 747 mmHg 91%
08:00 +8°C° 0 mm 2 mps 747 mmHg 88%
09:00 +9°C° 0.1 mm 2 mps 748 mmHg 83%
10:00 +10°C° 0.1 mm 2 mps 748 mmHg 78%
11:00 +12°C° 0.1 mm 2 mps 748 mmHg 72%
12:00 +13°C° 0.3 mm 2 mps 748 mmHg 68%
13:00 +13°C° 0.3 mm 2 mps 748 mmHg 64%
14:00 +14°C° 0.3 mm 2 mps 748 mmHg 59%
15:00 +14°C° 0.3 mm 2 mps 748 mmHg 61%
16:00 +13°C° 0.3 mm 2 mps 748 mmHg 63%
17:00 +13°C° 0.3 mm 2 mps 748 mmHg 65%
18:00 +12°C° 0.1 mm 2 mps 749 mmHg 70%
19:00 +11°C° 0.1 mm 1 mps 749 mmHg 75%
20:00 +10°C° 0.1 mm 1 mps 749 mmHg 80%
21:00 +9°C° 0 mm 1 mps 749 mmHg 81%
22:00 +8°C° 0 mm 0 mps 749 mmHg 83%
23:00 +7°C° 0 mm 0 mps 749 mmHg 84%

Day after tomorrow, 18 April, Sunday

Time Temperature Precipitation Wind Pressure Humidity
00:00 +8°C° 0 mm 1 mps 749 mmHg 85%
01:00 +8°C° 0 mm 1 mps 749 mmHg 86%
02:00 +7°C° 0 mm 1 mps 749 mmHg 88%
03:00 +7°C° 0 mm 1 mps 749 mmHg 89%
04:00 +7°C° 0 mm 1 mps 749 mmHg 91%
05:00 +7°C° 0 mm 1 mps 749 mmHg 92%
06:00 +8°C° 0 mm 1 mps 749 mmHg 91%
07:00 +8°C° 0 mm 1 mps 749 mmHg 91%
08:00 +9°C° 0 mm 1 mps 749 mmHg 90%
09:00 +10°C° 0.1 mm 2 mps 749 mmHg 85%
10:00 +12°C° 0.1 mm 2 mps 749 mmHg 80%
11:00 +13°C° 0.1 mm 2 mps 749 mmHg 75%
12:00 +13°C° 0.1 mm 3 mps 749 mmHg 72%
13:00 +13°C° 0.1 mm 3 mps 749 mmHg 70%
14:00 +13°C° 0.1 mm 3 mps 749 mmHg 67%
15:00 +13°C° 0.1 mm 4 mps 749 mmHg 70%
16:00 +12°C° 0.1 mm 4 mps 749 mmHg 73%
17:00 +12°C° 0.1 mm 4 mps 749 mmHg 75%
18:00 +11°C° 0 mm 4 mps 749 mmHg 77%
19:00 +10°C° 0 mm 3 mps 749 mmHg 78%
20:00 +9°C° 0 mm 3 mps 750 mmHg 79%
21:00 +8°C° 0 mm 3 mps 750 mmHg 81%
22:00 +7°C° 0 mm 3 mps 750 mmHg 83%
23:00 +5°C° 0 mm 3 mps 750 mmHg 84%

19 April, Monday

Time Temperature Precipitation Wind Pressure Humidity
00:00 +5°C° 0 mm 3 mps 750 mmHg 86%
01:00 +5°C° 0 mm 2 mps 750 mmHg 88%
02:00 +5°C° 0 mm 2 mps 750 mmHg 90%
03:00 +5°C° 0 mm 2 mps 750 mmHg 91%
04:00 +4°C° 0 mm 2 mps 750 mmHg 91%
05:00 +4°C° 0 mm 2 mps 750 mmHg 91%
06:00 +5°C° 0 mm 2 mps 750 mmHg 86%
07:00 +5°C° 0 mm 3 mps 749 mmHg 82%
08:00 +7°C° 0 mm 3 mps 749 mmHg 77%
09:00 +9°C° 0 mm 3 mps 749 mmHg 71%
10:00 +10°C° 0 mm 4 mps 749 mmHg 66%
11:00 +11°C° 0 mm 4 mps 749 mmHg 61%
12:00 +11°C° 0 mm 4 mps 748 mmHg 60%
13:00 +11°C° 0 mm 4 mps 748 mmHg 60%
14:00 +11°C° 0 mm 4 mps 748 mmHg 60%
15:00 +10°C° 0 mm 4 mps 748 mmHg 64%
16:00 +8°C° 0 mm 4 mps 748 mmHg 67%
17:00 +8°C° 0 mm 4 mps 748 mmHg 71%
18:00 +7°C° 0 mm 4 mps 747 mmHg 73%
19:00 +7°C° 0 mm 4 mps 747 mmHg 74%
20:00 +7°C° 0 mm 3 mps 747 mmHg 76%
21:00 +7°C° 0 mm 3 mps 747 mmHg 77%
22:00 +7°C° 0 mm 2 mps 747 mmHg 78%
23:00 +7°C° 0 mm 2 mps 746 mmHg 79%

20 April, Tuesday

Time Temperature Precipitation Wind Pressure Humidity
00:00 +6°C° 0 mm 2 mps 746 mmHg 82%
01:00 +6°C° 0 mm 2 mps 746 mmHg 85%
02:00 +6°C° 0 mm 2 mps 745 mmHg 88%
03:00 +5°C° 0 mm 3 mps 745 mmHg 88%
04:00 +5°C° 0 mm 3 mps 745 mmHg 88%
05:00 +5°C° 0 mm 3 mps 744 mmHg 88%
06:00 +5°C° 0 mm 4 mps 744 mmHg 86%
07:00 +6°C° 0 mm 4 mps 744 mmHg 83%
08:00 +6°C° 0 mm 5 mps 743 mmHg 80%
09:00 +7°C° 0.1 mm 5 mps 743 mmHg 76%
10:00 +7°C° 0.1 mm 5 mps 743 mmHg 73%
11:00 +8°C° 0.1 mm 5 mps 743 mmHg 70%
12:00 +8°C° 0.1 mm 6 mps 742 mmHg 69%
13:00 +8°C° 0.1 mm 6 mps 742 mmHg 68%
14:00 +8°C° 0.1 mm 6 mps 741 mmHg 67%
15:00 +8°C° 0.1 mm 6 mps 741 mmHg 71%
16:00 +7°C° 0.1 mm 6 mps 741 mmHg 75%
17:00 +6°C° 0.1 mm 5 mps 741 mmHg 79%
18:00 +6°C° 0 mm 5 mps 741 mmHg 80%
19:00 +6°C° 0 mm 5 mps 741 mmHg 82%
20:00 +6°C° 0 mm 4 mps 741 mmHg 83%
21:00 +6°C° 0 mm 4 mps 740 mmHg 84%
22:00 +5°C° 0 mm 4 mps 740 mmHg 85%
23:00 +5°C° 0 mm 4 mps 740 mmHg 85%

21 April, Wednesday

Time Temperature Precipitation Wind Pressure Humidity
00:00 +5°C° 0 mm 4 mps 740 mmHg 86%
01:00 +5°C° 0 mm 4 mps 740 mmHg 86%
02:00 +5°C° 0 mm 5 mps 740 mmHg 86%
03:00 +5°C° 0 mm 5 mps 740 mmHg 86%
04:00 +5°C° 0 mm 4 mps 740 mmHg 87%
05:00 +5°C° 0 mm 4 mps 740 mmHg 87%
06:00 +5°C° 0 mm 4 mps 740 mmHg 85%
07:00 +6°C° 0 mm 5 mps 740 mmHg 83%
08:00 +6°C° 0 mm 5 mps 740 mmHg 82%
09:00 +7°C° 0.1 mm 5 mps 740 mmHg 74%
10:00 +8°C° 0.1 mm 5 mps 740 mmHg 67%
11:00 +9°C° 0.1 mm 6 mps 740 mmHg 59%
12:00 +9°C° 0.2 mm 6 mps 741 mmHg 58%
13:00 +10°C° 0.2 mm 6 mps 741 mmHg 57%
14:00 +10°C° 0.2 mm 6 mps 741 mmHg 56%
15:00 +10°C° 0.1 mm 6 mps 741 mmHg 57%
16:00 +9°C° 0.1 mm 5 mps 742 mmHg 58%
17:00 +9°C° 0.1 mm 5 mps 742 mmHg 59%
18:00 +8°C° 0 mm 4 mps 742 mmHg 64%
19:00 +8°C° 0 mm 3 mps 743 mmHg 68%
20:00 +7°C° 0 mm 2 mps 743 mmHg 73%
21:00 +6°C° 0 mm 2 mps 743 mmHg 76%
22:00 +6°C° 0 mm 2 mps 743 mmHg 79%
23:00 +5°C° 0 mm 2 mps 744 mmHg 81%
Show more